Location: *
(51.1248°S, 108.4023°W)
Time: 11:51:53
(UTC+00:00)

USA 281 - Pass Details

Date: 26 October 2021
Orbit: 1078 x 1081 km, 106.0° (Epoch: 25 November)

Event Time Altitude Azimuth Distance (km) Brightness Sun altitude
Exits shadow 03:24:01 - 14° (NNE) 3,352 5.3 -11.4°
Reaches altitude 10° 03:25:10 10° 12° (NNE) 2,926 5.1 -11.5°
Maximum altitude 03:31:40 61° 292° (WNW) 1,233 3.7 -12.3°
Drops below altitude 10° 03:38:15 10° 212° (SSW) 2,958 6.8 -13.1°
Sets 03:40:51 0° 208° (SSW) 3,920 7.5 -13.4°
